Weather History for Murray, KY

Change the Weather History Date:

Wednesday, August 20, 2014

  Actual Average (KPAH) Record (KPAH)
Temperature  
Mean Temperature 85 °F 78 °F  
Max Temperature 95 °F 89 °F 100 °F (1962)
Min Temperature 75 °F 66 °F 54 °F (1943)
Degree Days  
Heating Degree Days 0 0  
Month to date heating degree days 0  
Since 1 June heating degree days 4  
Since 1 July heating degree days 0  
Cooling Degree Days 20 12  
Month to date cooling degree days 260  
Year to date cooling degree days 1183  
Since 1 June cooling degree days 1011  
Growing Degree Days 35 (Base 50)    
Moisture  
Dew Point 74 °F    
Average Humidity 76    
Maximum Humidity 100    
Minimum Humidity 49    
Precipitation  
Precipitation 0.00 in 0.08 in 0.80 in (1989)
Month to date precipitation 1.83  
Year to date precipitation 31.55  
Snow  
Snow 0.00 in 0.00 in - ()
Month to date snowfall 0.0  
Since 1 June snowfall 0.0  
Since 1 July snowfall 0.0  
Snow Depth -    
Sea Level Pressure  
Sea Level Pressure 29.96 in    
Wind  
Wind Speed 8 mph (WSW)    
Max Wind Speed 17 mph    
Max Gust Speed 22 mph    
Visibility 10 miles    
Events      
T = Trace of Precipitation, MM = Missing Value Source: NWS Daily Summary

Daily Weather History Graph

Daily Weather History Graph

Search for Another Location

Airport:

Trip Planner

Search our weather history database for the weather conditions in past years. The results will help you decide how hot, cold, wet, or windy it might be!

Date:

Astronomy

Aug. 20, 2014 Rise Set
Actual Time 6:14 AM CDT 7:38 PM CDT
Civil Twilight 5:47 AM CDT 8:05 PM CDT
Nautical Twilight 5:15 AM CDT 8:37 PM CDT
Astronomical Twilight 4:41 AM CDT 9:11 PM CDT
Moon 1:57 AM CDT (8/20) 4:20 PM CDT (8/20)
Length of Visible Light 14h 17m
Length of Day
13h 23m
Waning Crescent, 20% of the Moon is Illuminated
Aug 20
Waning Crescent
Aug 25
New
Sep 2
First Quarter
Sep 8
Full
Sep 15
Last Quarter

Hourly Weather History & Observations

Time (CDT) Temp. Heat Index Dew Point Humidity Pressure Visibility Wind Dir Wind Speed Gust Speed Precip Events Conditions
12:35 AM 77.0 °F - 73.4 °F 89% 29.87 in 10.0 mi SSW 5.8 mph - N/A   Clear
12:55 AM 75.2 °F - 73.4 °F 94% 29.88 in 10.0 mi SSW 5.8 mph - N/A   Clear
1:15 AM 77.0 °F - 73.4 °F 89% 29.87 in 10.0 mi SSW 6.9 mph - N/A   Clear
1:35 AM 77.0 °F - 73.4 °F 89% 29.87 in 10.0 mi SW 6.9 mph - N/A   Clear
1:55 AM 75.2 °F - 73.4 °F 94% 29.87 in 10.0 mi SSW 5.8 mph - N/A   Clear
2:15 AM 75.2 °F - 73.4 °F 94% 29.87 in 10.0 mi SW 5.8 mph - N/A   Clear
2:35 AM 75.2 °F - 73.4 °F 94% 29.87 in 10.0 mi SW 6.9 mph - N/A   Clear
2:55 AM 75.2 °F - 75.2 °F 100% 29.88 in 10.0 mi SW 6.9 mph - N/A   Clear
3:15 AM 75.2 °F - 75.2 °F 100% 29.88 in 10.0 mi SW 9.2 mph - N/A   Clear
3:35 AM 75.2 °F - 75.2 °F 100% 29.88 in 10.0 mi WSW 9.2 mph - N/A   Clear
3:55 AM 75.2 °F - 75.2 °F 100% 29.88 in 10.0 mi WSW 10.4 mph - N/A   Clear
4:15 AM 75.2 °F - 75.2 °F 100% 29.89 in 10.0 mi WSW 9.2 mph - N/A   Clear
4:35 AM 75.2 °F - 75.2 °F 100% 29.89 in 10.0 mi WSW 8.1 mph - N/A   Clear
4:55 AM 75.2 °F - 75.2 °F 100% 29.89 in 10.0 mi WSW 6.9 mph - N/A   Clear
5:15 AM 75.2 °F - 75.2 °F 100% 29.90 in 10.0 mi SW 6.9 mph - N/A   Clear
5:35 AM 75.2 °F - 75.2 °F 100% 29.91 in 9.0 mi SW 6.9 mph - N/A   Clear
5:55 AM 75.2 °F - 75.2 °F 100% 29.91 in 7.0 mi SW 6.9 mph - N/A   Clear
6:15 AM 75.2 °F - 75.2 °F 100% 29.92 in 6.0 mi SW 6.9 mph - N/A   Partly Cloudy
6:35 AM 75.2 °F - 75.2 °F 100% 29.92 in 5.0 mi WSW 6.9 mph - N/A   Scattered Clouds
6:55 AM 75.2 °F - 75.2 °F 100% 29.93 in 5.0 mi SW 5.8 mph - N/A   Mostly Cloudy
7:15 AM 75.2 °F - 75.2 °F 100% 29.93 in 6.0 mi SW 6.9 mph - N/A   Scattered Clouds
7:35 AM 77.0 °F - 77.0 °F 100% 29.94 in 7.0 mi SW 6.9 mph - N/A   Scattered Clouds
7:55 AM 77.0 °F - 77.0 °F 100% 29.94 in 9.0 mi SW 10.4 mph - N/A   Partly Cloudy
8:15 AM 80.6 °F 87.1 °F 77.0 °F 89% 29.95 in 10.0 mi WSW 10.4 mph - N/A   Clear
8:35 AM 82.4 °F 89.5 °F 75.2 °F 79% 29.95 in 10.0 mi West 10.4 mph 16.1 mph N/A   Clear
8:55 AM 82.4 °F 89.5 °F 75.2 °F 79% 29.96 in 10.0 mi West 9.2 mph - N/A   Clear
9:15 AM 84.2 °F 92.3 °F 75.2 °F 74% 29.97 in 10.0 mi WSW 12.7 mph - N/A   Clear
9:35 AM 84.2 °F 92.3 °F 75.2 °F 74% 29.98 in 10.0 mi West 13.8 mph - N/A   Clear
9:55 AM 86.0 °F 95.1 °F 75.2 °F 70% 29.98 in 10.0 mi West 12.7 mph - N/A   Clear
10:15 AM 86.0 °F 95.1 °F 75.2 °F 70% 29.98 in 10.0 mi WSW 9.2 mph - N/A   Clear
10:35 AM 87.8 °F 95.6 °F 73.4 °F 62% 29.99 in 10.0 mi West 10.4 mph - N/A   Clear
10:55 AM 89.6 °F 98.2 °F 73.4 °F 59% 29.99 in 10.0 mi WNW 9.2 mph - N/A   Clear
11:15 AM 89.6 °F 98.2 °F 73.4 °F 59% 29.99 in 10.0 mi West 11.5 mph 16.1 mph N/A   Clear
11:35 AM 91.4 °F 102.5 °F 75.2 °F 59% 29.99 in 10.0 mi West 10.4 mph - N/A   Clear
11:55 AM 89.6 °F 98.2 °F 73.4 °F 59% 30.00 in 10.0 mi West 9.2 mph - N/A   Clear
12:15 PM 91.4 °F 102.5 °F 75.2 °F 59% 30.00 in 10.0 mi West 10.4 mph 18.4 mph N/A   Clear
12:35 PM 91.4 °F 102.5 °F 75.2 °F 59% 30.00 in 10.0 mi West 6.9 mph - N/A   Clear
12:55 PM 93.2 °F 105.0 °F 75.2 °F 56% 30.01 in 10.0 mi West 9.2 mph - N/A   Clear
1:15 PM 93.2 °F 102.4 °F 73.4 °F 52% 30.00 in 10.0 mi WNW 9.2 mph - N/A   Clear
1:35 PM 93.2 °F 102.4 °F 73.4 °F 52% 30.00 in 10.0 mi WSW 4.6 mph - N/A   Clear
1:55 PM 93.2 °F 100.5 °F 71.6 °F 49% 30.00 in 10.0 mi NW 10.4 mph 16.1 mph N/A   Partly Cloudy
2:15 PM 93.2 °F 100.5 °F 71.6 °F 49% 29.99 in 10.0 mi NW 9.2 mph - N/A   Mostly Cloudy
2:35 PM 93.2 °F 102.4 °F 73.4 °F 52% 29.98 in 10.0 mi NW 10.4 mph 17.3 mph N/A   Mostly Cloudy
2:55 PM 93.2 °F 102.4 °F 73.4 °F 52% 29.97 in 10.0 mi WNW 10.4 mph - N/A   Scattered Clouds
3:15 PM 93.2 °F 100.5 °F 71.6 °F 49% 29.96 in 10.0 mi WNW 8.1 mph - N/A   Scattered Clouds
3:55 PM 93.2 °F 102.4 °F 73.4 °F 52% 29.95 in 10.0 mi West 12.7 mph - N/A   Partly Cloudy
4:15 PM 93.2 °F 102.4 °F 73.4 °F 52% 29.96 in 10.0 mi West 9.2 mph 17.3 mph N/A   Scattered Clouds
4:35 PM 95.0 °F 104.5 °F 73.4 °F 49% 29.95 in 10.0 mi West 15.0 mph 21.9 mph N/A   Scattered Clouds
4:55 PM 93.2 °F 102.4 °F 73.4 °F 52% 29.95 in 10.0 mi WSW 17.3 mph 20.7 mph N/A   Partly Cloudy
5:15 PM 91.4 °F 102.5 °F 75.2 °F 59% 29.95 in 10.0 mi West 11.5 mph - N/A   Partly Cloudy
5:35 PM 91.4 °F 100.1 °F 73.4 °F 55% 29.96 in 10.0 mi WSW 13.8 mph - N/A   Partly Cloudy
5:55 PM 91.4 °F 100.1 °F 73.4 °F 55% 29.96 in 10.0 mi West 12.7 mph 19.6 mph N/A   Partly Cloudy
6:15 PM 91.4 °F 100.1 °F 73.4 °F 55% 29.95 in 10.0 mi SW 10.4 mph - N/A   Partly Cloudy
6:35 PM 89.6 °F 98.2 °F 73.4 °F 59% 29.96 in 10.0 mi WSW 11.5 mph - N/A   Clear
6:55 PM 89.6 °F 98.2 °F 73.4 °F 59% 29.98 in 10.0 mi WSW 6.9 mph - N/A   Clear
7:15 PM 87.8 °F 95.6 °F 73.4 °F 62% 29.99 in 10.0 mi SW 6.9 mph - N/A   Clear
7:35 PM 86.0 °F 93.4 °F 73.4 °F 66% 29.99 in 10.0 mi SW 4.6 mph - N/A   Clear
7:55 PM 84.2 °F 90.9 °F 73.4 °F 70% 30.00 in 10.0 mi South 4.6 mph - N/A   Clear
8:15 PM 84.2 °F 90.9 °F 73.4 °F 70% 30.01 in 10.0 mi SSE 4.6 mph - N/A   Clear
8:35 PM 82.4 °F 88.2 °F 73.4 °F 74% 30.03 in 10.0 mi ESE 9.2 mph - N/A   Clear
8:55 PM 80.6 °F 84.6 °F 71.6 °F 74% 30.04 in 10.0 mi ESE 10.4 mph - N/A   Mostly Cloudy
9:15 PM 77.0 °F - 71.6 °F 83% 30.05 in 10.0 mi ESE 4.6 mph - N/A   Overcast
9:35 PM 77.0 °F - 71.6 °F 83% 30.06 in 10.0 mi East 6.9 mph - N/A   Scattered Clouds
9:55 PM 77.0 °F - 71.6 °F 83% 30.06 in 10.0 mi SSE 4.6 mph - N/A   Clear
10:15 PM 75.2 °F - 71.6 °F 89% 30.06 in 10.0 mi SE 4.6 mph - N/A   Clear
10:35 PM 75.2 °F - 71.6 °F 89% 30.06 in 10.0 mi Calm Calm - N/A   Scattered Clouds
10:55 PM 75.2 °F - 71.6 °F 89% 30.06 in 10.0 mi SE 3.5 mph - N/A   Partly Cloudy
11:15 PM 75.2 °F - 71.6 °F 89% 30.06 in 10.0 mi South 4.6 mph - N/A   Partly Cloudy
11:35 PM 75.2 °F - 71.6 °F 89% 30.06 in 10.0 mi South 8.1 mph - N/A   Scattered Clouds
11:55 PM 75.2 °F - 69.8 °F 83% 30.05 in 10.0 mi South 6.9 mph - N/A   Scattered Clouds